CAPE
0 1 12 5 0 20 30 18 9 0 0 0 8 1 101 272 360 475 499 510 525 491 523 381 296 260 229 163 164 199 139 10 0 0 0 0 0 0 0 0 0 0 0 0
0 0 0 1 1 11 10 19 6 0 0 0 0 0 0 251 499 378 559 484 521 558 568 607 369 384 310 204 218 166 85 2 2 0 0 0 0 0 0 0 0 0 0 0
0 0 0 5 0 0 0 0 0 1 0 0 0 0 0 5 304 529 380 297 194 570 502 563 435 327 349 232 195 134 30 8 0 0 0 0 0 0 0 0 0 0 0 0
0 0 0 0 0 0 0 0 0 0 0 0 0 0 0 0 74 308 448 263 91 249 409 408 354 297 317 279 161 103 36 17 0 0 0 0 0 0 0 0 0 0 0 0
0 0 0 0 0 0 0 0 0 0 0 0 0 0 0 0 0 108 131 172 53 59 187 227 295 259 204 151 187 82 22 10 2 0 0 0 0 0 0 0 0 0 0 0
0 0 0 0 0 0 0 0 0 0 0 0 0 0 0 0 0 0 0 96 56 8 30 45 119 108 83 72 139 54 7 0 0 0 0 0 0 0 0 0 0 0 0 0
0 0 0 0 0 0 0 0 0 0 0 0 0 0 0 0 0 0 0 0 32 0 0 28 95 158 127 138 110 63 38 36 29 3 0 0 0 0 0 0 0 0 0 0
0 0 0 0 0 0 0 0 0 0 0 0 0 0 0 0 0 0 0 0 0 8 34 93 111 143 135 135 128 87 123 171 116 77 33 1 0 0 0 0 0 0 0 0
0 0 0 0 0 0 0 0 0 0 0 0 0 0 0 0 1 0 0 0 1 3 152 276 349 290 104 93 140 128 220 274 98 81 0 0 0 0 0 0 0 0 0 0
0 0 0 1 0 0 0 0 0 0 0 0 0 0 0 3 6 4 0 1 29 98 244 346 438 465 417 156 123 150 182 205 69 0 0 0 0 0 0 0 0 0 0 0
0 0 0 0 0 0 0 0 0 0 0 0 0 0 0 0 0 0 0 0 27 168 365 546 555 507 519 480 495 398 182 62 4 0 0 0 0 0 0 0 0 0 0 0
0 0 0 0 0 0 0 0 0 0 0 0 0 0 0 0 0 0 0 1 0 126 315 496 560 497 475 537 496 272 51 5 0 0 0 0 0 0 0 0 0 0 0 0
0 0 0 0 0 0 0 0 0 0 0 0 0 0 0 0 0 0 0 0 44 143 218 357 487 518 486 421 225 62 2 0 0 0 0 0 0 0 0 0 0 0 0 0
0 0 0 0 0 5 15 29 0 0 0 0 0 0 0 0 0 0 0 0 44 151 162 176 294 484 494 283 17 0 0 0 0 0 0 0 0 0 0 0 0 0 0 0
0 0 0 0 0 0 0 0 0 0 0 0 0 0 0 0 0 0 0 0 0 0 14 28 20 15 50 30 0 0 0 0 0 0 0 0 0 0 0 0 0 0 0 0
0 0 0 0 0 0 0 0 0 0 0 0 0 0 0 0 0 0 0 0 0 0 0 0 0 0 0 0 6 0 0 0 0 0 0 0 0 0 0 0 0 0 0 0
0 0 0 0 0 0 0 0 0 0 0 0 0 0 0 0 0 0 0 0 0 0 0 0 0 0 0 0 0 0 0 0 0 0 0 0 0 0 0 0 0 0 0 0
0 0 0 0 0 0 0 0 0 0 0 0 0 0 0 0 0 0 0 0 0 0 0 0 0 0 0 0 0 0 0 0 0 0 0 0 0 0 0 0 0 0 0 0
0 0 0 0 0 0 0 0 0 0 0 0 0 0 0 0 0 0 0 0 0 0 0 0 0 0 0 0 0 0 0 0 0 0 0 0 0 0 0 0 0 0 0 0
0 0 0 0 0 0 0 0 0 0 0 0 0 0 0 0 0 0 0 0 0 0 0 0 0 0 0 0 0 0 0 0 0 0 0 0 0 0 0 0 0 0 0 0
0 0 0 0 0 0 0 0 0 0 0 0 0 0 0 0 0 0 0 0 0 0 0 0 0 0 0 0 0 0 0 0 0 0 0 0 0 0 0 0 0 0 0 0
0 0 0 0 0 0 0 0 0 0 0 0 0 0 0 0 0 0 0 0 0 0 0 0 0 0 0 0 0 0 0 0 0 0 0 0 0 0 0 0 0 0 0 0
0 0 0 0 0 0 0 0 0 0 0 0 0 0 0 0 0 0 0 0 0 0 0 0 0 0 0 0 0 0 0 0 0 0 0 0 0 0 0 0 0 0 0 0
0 0 0 0 0 0 0 0 0 0 0 0 0 0 0 0 0 0 0 0 0 0 0 0 0 0 0 0 0 0 0 0 0 0 0 0 0 0 0 0 0 0 0 0
0 0 0 0 0 0 0 0 0 0 0 0 0 0 0 0 0 0 0 0 0 0 0 0 0 0 0 0 0 0 0 0 0 0 0 0 0 0 0 0 0 0 0 0
0 0 0 0 0 0 0 0 0 0 0 0 0 0 0 0 0 0 0 0 0 0 0 0 0 0 0 0 0 0 0 0 0 0 0 0 0 0 0 0 0 0 0 0
CIN
-0 -48 -72 -109 -0 -84 -64 -52 -63 -0 -0 -0 -39 -10 -89 -115 -94 -82 -107 -125 -131 -154 -152 -176 -205 -206 -197 -213 -207 -180 -195 -121 -0 -0 -0 -0 -0 -0 -0 -0 -0 -0 -0 -0
-0 -0 -0 -91 -83 -46 -57 -40 -37 -0 -0 -0 -0 -0 -0 -114 -98 -101 -98 -128 -139 -147 -179 -186 -226 -210 -215 -233 -229 -222 -253 -166 -180 -0 -0 -0 -0 -0 -0 -0 -0 -0 -0 -0
-0 -0 -0 -56 -0 -0 -0 -25 -0 -53 -0 -0 -0 -0 -0 -46 -119 -87 -120 -139 -176 -155 -176 -194 -229 -274 -266 -288 -288 -272 -318 -316 -0 -0 -0 -0 -0 -0 -0 -0 -0 -0 -0 -0
-0 -0 -0 -0 -0 -0 -0 -0 -0 -0 -0 -0 -0 -0 -0 -0 -98 -95 -85 -134 -206 -204 -181 -199 -261 -302 -307 -303 -332 -322 -341 -329 -119 -0 -0 -0 -0 -0 -0 -0 -0 -0 -0 -0
-0 -0 -0 -0 -0 -0 -0 -0 -0 -0 -0 -0 -0 -0 -0 -0 -0 -96 -110 -134 -209 -233 -228 -230 -258 -300 -330 -340 -300 -312 -315 -317 -70 -0 -0 -0 -0 -0 -0 -0 -0 -0 -0 -0
-0 -0 -0 -0 -0 -0 -0 -0 -0 -0 -0 -0 -0 -0 -0 -0 -0 -0 -5 -133 -172 -283 -308 -344 -328 -358 -373 -373 -296 -294 -308 -0 -0 -0 -0 -0 -0 -0 -0 -0 -0 -0 -0 -0
-0 -0 -0 -0 -0 -0 -0 -0 -0 -0 -0 -0 -0 -0 -0 -0 -0 -0 -0 -0 -204 -35 -0 -303 -319 -342 -359 -323 -289 -259 -252 -231 -207 -125 -0 -0 -0 -0 -0 -0 -0 -0 -0 -0
-0 -0 -0 -0 -0 -0 -0 -0 -0 -0 -0 -0 -0 -0 -0 -0 -0 -0 -0 -0 -0 -197 -274 -281 -294 -314 -333 -282 -286 -275 -224 -139 -138 -154 -169 -86 -0 -0 -0 -0 -0 -0 -0 -0
-0 -0 -0 -0 -0 -0 -3 -0 -0 -0 -0 -0 -0 -0 -0 -3 -140 -0 -0 -0 -36 -39 -250 -240 -289 -252 -255 -245 -273 -245 -186 -128 -197 -168 -0 -0 -0 -0 -0 -0 -0 -0 -0 -0
-0 -0 -0 -41 -0 -0 -0 -0 -0 -0 -0 -0 -0 -0 -0 -11 -67 -106 -0 -65 -232 -291 -280 -277 -251 -219 -208 -240 -268 -234 -181 -164 -212 -0 -0 -0 -0 -0 -0 -0 -0 -0 -0 -0
-0 -0 -0 -0 -0 -0 -0 -0 -0 -0 -0 -0 -0 -0 -0 -0 -0 -0 -0 -0 -228 -238 -226 -186 -206 -224 -207 -227 -186 -179 -218 -246 -276 -0 -0 -0 -0 -0 -0 -0 -0 -0 -0 -0
-0 -0 -0 -0 -0 -0 -0 -0 -0 -0 -0 -0 -0 -0 -0 -0 -0 -0 -0 -53 -0 -206 -160 -130 -167 -224 -227 -202 -196 -223 -272 -287 -0 -0 -0 -0 -0 -0 -0 -0 -0 -0 -0 -0
-0 -0 -0 -0 -0 -0 -0 -0 -0 -0 -0 -0 -0 -0 -0 -0 -0 -0 -0 -0 -160 -160 -168 -185 -208 -178 -176 -218 -244 -271 -183 -0 -0 -0 -0 -0 -0 -0 -0 -0 -0 -0 -0 -0
-0 -0 -0 -0 -0 -20 -21 -28 -0 -0 -0 -0 -0 -0 -0 -0 -0 -0 -0 -0 -177 -153 -158 -186 -197 -167 -176 -204 -312 -0 -0 -0 -0 -0 -0 -0 -0 -0 -0 -0 -0 -0 -0 -0
-0 -0 -0 -0 -0 -0 -0 -1 -0 -0 -0 -0 -0 -0 -0 -0 -0 -0 -0 -0 -0 -0 -73 -200 -221 -238 -249 -282 -0 -0 -0 -0 -0 -0 -0 -0 -0 -0 -0 -0 -0 -0 -0 -0
-0 -0 -0 -0 -0 -0 -0 -0 -0 -0 -0 -0 -0 -0 -0 -0 -0 -0 -0 -0 -0 -0 -0 -0 -0 -0 -0 -0 -208 -0 -0 -0 -0 -0 -0 -0 -0 -0 -0 -0 -0 -0 -0 -0
-15 -0 -0 -0 -0 -0 -0 -0 -0 -0 -0 -0 -0 -0 -0 -0 -0 -0 -0 -0 -0 -0 -0 -0 -0 -0 -0 -0 -0 -0 -0 -0 -0 -0 -0 -0 -0 -0 -0 -0 -0 -0 -0 -0
-0 -0 -0 -0 -0 -0 -0 -0 -0 -0 -0 -0 -0 -0 -0 -0 -0 -0 -0 -0 -0 -0 -0 -0 -0 -0 -0 -0 -0 -0 -0 -0 -0 -0 -0 -0 -0 -0 -0 -0 -0 -0 -0 -0
-0 -0 -0 -0 -0 -0 -0 -0 -0 -0 -0 -0 -0 -0 -0 -0 -0 -0 -0 -0 -0 -0 -0 -0 -0 -0 -0 -0 -0 -0 -0 -0 -0 -0 -0 -0 -0 -0 -0 -0 -0 -0 -0 -0
-0 -0 -0 -0 -0 -0 -0 -0 -0 -0 -0 -0 -0 -0 -0 -0 -0 -0 -0 -0 -0 -0 -0 -0 -0 -0 -0 -0 -0 -0 -0 -0 -0 -0 -0 -0 -0 -0 -1 -0 -0 -0 -0 -0
-0 -0 -0 -0 -0 -0 -0 -0 -0 -0 -0 -0 -0 -0 -0 -0 -0 -0 -0 -0 -0 -0 -0 -0 -0 -0 -0 -0 -0 -0 -0 -0 -0 -0 -0 -0 -0 -0 -0 -0 -0 -0 -0 -0
-0 -0 -0 -0 -0 -0 -0 -0 -0 -0 -0 -0 -0 -0 -0 -0 -0 -0 -0 -0 -0 -0 -0 -0 -0 -0 -0 -0 -0 -0 -0 -0 -0 -0 -0 -0 -0 -0 -0 -0 -0 -0 -0 -0
-0 -0 -0 -0 -0 -0 -0 -0 -0 -0 -0 -0 -0 -0 -0 -0 -0 -0 -0 -0 -0 -0 -0 -0 -0 -0 -0 -0 -0 -0 -0 -0 -0 -0 -0 -0 -0 -0 -0 -0 -0 -0 -0 -0
-0 -0 -0 -0 -0 -0 -0 -0 -0 -0 -0 -0 -0 -0 -0 -0 -0 -0 -0 -0 -0 -0 -0 -0 -0 -0 -0 -0 -0 -0 -0 -0 -0 -0 -0 -0 -0 -0 -0 -0 -0 -0 -0 -0
-0 -0 -0 -0 -0 -0 -0 -0 -0 -0 -0 -0 -0 -0 -0 -0 -0 -0 -0 -0 -0 -0 -0 -0 -0 -0 -0 -0 -0 -0 -0 -0 -0 -0 -0 -0 -0 -0 -0 -0 -0 -0 -0 -0
-0 -0 -0 -0 -0 -0 -0 -0 -0 -0 -0 -0 -0 -0 -0 -0 -0 -0 -0 -0 -0 -0 -0 -0 -0 -0 -0 -0 -0 -0 -0 -0 -0 -0 -0 -0 -0 -0 -0 -0 -0 -0 -0 -0
Wind_Speed
15 14 19 21 23 16 15 16 19 22 19 23 27 21 11 16 18 20 20 21 23 24 25 24 23 23 25 23 20 19 17 15 14 14 14 16 11 6 6 6 7 8 7 6
18 20 21 19 21 16 19 16 18 21 21 24 26 27 5 13 18 17 20 24 25 24 20 20 21 22 20 20 18 18 16 15 16 16 14 8 8 4 6 6 7 6 4 5
13 18 20 21 20 21 21 20 21 22 23 19 20 26 17 1 2 23 21 23 26 25 22 20 20 22 19 19 18 18 17 17 17 15 7 3 4 9 6 5 5 4 3 4
19 21 23 23 23 20 24 18 22 24 21 16 16 22 28 7 20 25 26 20 22 25 23 21 19 20 19 19 17 16 14 17 16 13 10 4 2 2 3 2 3 2 3 6
16 16 19 21 25 17 22 21 23 23 20 17 17 16 18 25 32 29 20 21 20 23 22 21 19 18 17 11 12 12 11 14 15 12 8 4 4 3 4 4 3 5 6 8
22 17 17 21 19 18 19 22 19 19 18 21 20 20 24 25 29 21 25 20 22 22 19 12 12 7 7 7 10 11 12 14 12 11 8 6 6 4 5 5 4 6 8 9
22 19 15 16 16 14 14 17 19 18 19 22 22 23 28 28 28 30 23 18 16 18 17 12 12 12 11 14 12 11 12 11 10 8 7 7 6 6 6 6 5 5 7 9
4 7 13 12 13 16 19 11 13 19 19 21 21 25 17 22 26 2 2 2 3 11 16 15 17 14 11 13 12 10 11 10 8 7 7 7 7 8 9 7 6 7 7 7
6 11 14 12 16 15 16 19 15 14 17 21 18 23 26 24 21 17 11 5 4 8 14 14 9 12 12 10 11 11 9 9 6 6 7 7 8 8 9 9 8 8 8 9
14 10 17 20 17 24 19 14 19 17 21 23 20 21 25 23 20 14 10 7 5 2 4 6 8 9 8 6 6 5 7 7 6 6 7 7 7 8 9 8 7 7 8 9
13 17 22 21 23 24 18 21 17 16 16 20 23 22 20 19 19 20 16 11 7 4 6 8 8 8 6 3 3 3 4 5 5 6 5 6 6 6 5 6 7 8 10 12
13 14 23 26 21 20 15 13 13 14 22 15 18 24 20 21 26 23 21 14 9 4 7 6 7 3 2 3 3 4 4 4 5 5 5 6 5 5 7 8 9 10 11 12
8 21 21 27 24 18 16 17 16 15 15 8 9 20 20 20 21 20 25 25 10 1 2 4 3 3 4 5 6 7 7 7 7 5 7 5 6 8 9 12 12 12 14 16
7 17 20 20 23 22 24 24 17 14 13 25 28 32 21 12 18 30 26 27 26 13 9 9 10 10 11 11 12 10 10 10 8 8 8 8 9 11 12 12 12 16 20 24
6 14 16 22 20 18 21 21 16 14 17 25 33 22 12 24 22 23 13 19 21 20 18 15 13 13 14 15 14 12 11 12 12 10 9 10 11 11 12 14 16 18 21 22
14 16 15 18 21 23 25 24 21 18 24 26 26 26 20 19 15 15 14 12 15 16 17 19 18 11 12 12 13 14 13 11 11 11 12 11 11 12 13 15 18 20 22 24
17 15 18 22 25 29 36 17 24 26 22 23 26 20 15 14 13 13 12 12 14 16 18 21 23 24 21 16 14 12 12 11 11 11 11 10 10 11 14 16 19 21 23 24
16 18 23 26 24 33 28 25 26 26 27 23 22 15 14 12 11 12 12 13 15 17 19 21 23 23 24 21 18 16 14 13 12 11 11 10 11 12 14 16 19 21 25 25
18 16 20 22 22 29 25 18 16 16 20 16 7 4 5 7 10 15 17 18 19 20 21 23 24 24 23 22 19 18 17 15 14 14 13 12 12 13 14 17 24 25 25 26
18 17 18 19 22 26 24 17 12 13 16 7 4 3 3 10 15 17 16 17 20 21 22 23 23 23 23 22 19 18 17 16 16 14 13 13 15 19 21 26 27 25 24 24
21 22 17 20 25 27 15 14 10 13 17 4 4 4 6 12 17 12 14 18 19 20 21 21 22 22 22 20 19 19 17 17 15 15 15 17 20 23 25 24 24 25 26 27
20 19 20 23 25 29 15 10 13 16 10 3 6 8 9 9 10 12 15 17 18 19 19 19 20 21 21 20 19 19 19 18 18 19 20 22 23 24 24 24 24 26 27 28
24 21 21 14 16 16 14 12 11 5 2 6 4 5 5 8 11 12 14 16 17 18 18 18 19 20 21 21 20 21 20 20 22 23 24 24 23 23 24 26 27 28 29 32
25 19 20 16 16 13 11 10 6 6 5 5 6 4 7 8 10 12 14 16 16 17 18 18 19 21 21 21 22 21 21 22 23 24 25 25 26 27 27 27 29 32 33 35
22 15 16 19 15 13 13 10 6 6 6 6 9 9 9 9 12 12 14 15 15 16 18 18 19 20 21 21 23 23 23 23 25 26 28 28 29 30 31 32 33 34 34 34
18 17 15 18 10 11 8 6 6 5 7 8 8 11 12 11 11 12 13 14 15 16 17 18 20 21 22 23 24 26 27 27 29 30 31 32 34 35 36 38 41 38 38 38
Wind_Direction
26 310 225 221 217 260 263 271 263 237 260 248 235 264 122 133 135 143 141 139 146 154 159 155 151 150 155 152 146 143 137 132 129 127 125 137 126 92 63 37 28 23 30 47
338 231 215 230 236 258 253 269 260 245 272 248 225 211 121 144 156 149 154 163 166 163 151 151 153 154 154 154 151 152 149 145 145 147 142 123 120 54 22 15 11 24 47 44
3 258 233 229 234 238 248 247 244 240 273 280 270 226 278 256 172 178 169 175 185 174 162 154 156 163 159 163 162 161 160 158 157 154 132 17 4 346 0 9 15 26 47 27
277 247 238 240 236 249 239 261 254 241 271 285 290 272 243 290 177 182 190 179 180 184 177 171 167 168 169 171 167 166 163 165 165 161 162 170 202 300 334 342 359 16 13 0
303 282 261 252 237 261 239 266 247 243 282 300 312 315 303 242 208 201 190 190 185 188 181 180 179 179 176 170 173 171 170 170 172 175 183 203 216 264 326 330 337 349 353 353
267 293 277 256 255 265 272 259 273 278 290 287 294 294 274 255 215 214 203 194 192 191 186 193 193 207 195 189 178 174 175 181 185 188 195 217 221 251 303 313 317 331 341 349
279 285 292 283 273 281 291 283 281 289 289 284 282 287 275 253 242 231 213 194 195 192 192 200 191 192 190 184 180 182 184 191 196 204 218 225 252 265 274 286 286 307 323 334
118 308 283 288 285 281 284 323 312 293 299 303 308 288 326 291 284 129 85 130 206 190 187 188 189 187 188 183 182 185 193 201 206 225 234 252 271 280 290 283 289 302 312 327
311 298 288 289 284 293 291 290 314 323 323 304 321 306 275 284 305 332 356 54 86 142 163 174 178 184 186 186 189 194 199 210 245 250 265 274 280 285 291 295 296 304 313 319
267 292 277 275 285 268 288 305 299 311 302 303 312 313 290 288 297 334 351 23 41 62 125 147 159 168 176 190 188 194 207 226 254 263 266 268 272 290 298 303 299 302 309 316
264 268 275 278 270 281 289 287 302 313 316 308 305 303 304 296 294 299 317 337 16 50 103 125 140 154 162 166 181 202 231 256 260 265 271 282 293 299 307 302 296 293 297 294
265 273 269 274 290 305 292 294 303 305 297 316 315 298 301 294 284 296 297 322 336 56 119 129 140 133 145 191 220 243 251 250 257 288 295 300 305 300 297 293 288 297 309 309
261 268 269 273 287 287 292 295 300 305 318 307 307 301 311 305 297 301 289 283 318 166 329 325 316 271 257 265 276 270 278 283 293 284 291 286 280 288 302 311 314 319 320 319
247 271 270 272 281 279 277 281 294 302 303 294 285 286 305 318 309 292 296 280 280 307 307 310 307 300 298 293 293 285 287 292 290 287 284 289 297 307 310 313 313 315 321 322
255 274 281 280 291 287 280 284 294 293 300 289 280 300 310 304 312 307 312 303 302 306 309 310 308 307 308 308 308 299 296 297 296 288 280 294 298 306 310 315 323 320 330 330
270 282 285 285 285 284 283 285 289 293 293 291 297 299 312 312 322 325 325 326 326 328 333 334 333 326 313 301 298 300 299 302 298 291 291 302 309 311 314 324 327 331 332 333
264 275 280 285 286 286 276 283 285 287 292 294 290 304 314 313 317 328 331 334 337 339 337 335 336 339 343 340 332 324 320 317 313 307 308 310 311 314 321 325 330 329 329 328
268 277 283 286 293 268 291 297 293 289 288 286 292 298 302 306 313 323 333 340 340 338 338 340 343 344 344 347 347 343 338 334 331 326 325 323 319 319 324 329 331 329 326 325
271 277 286 288 291 294 301 311 304 297 298 299 299 315 327 322 321 315 323 329 330 333 337 339 341 344 348 349 352 352 350 349 346 342 339 338 336 334 335 328 328 327 326 326
273 279 283 293 293 296 306 317 308 308 295 306 314 315 317 315 307 311 323 330 332 337 339 341 345 348 351 353 356 359 357 356 353 354 353 348 340 329 325 323 325 327 327 327
268 276 277 288 291 298 309 317 318 281 301 256 281 304 308 308 315 330 335 334 341 343 345 349 351 352 355 359 2 1 2 1 1 356 346 336 331 326 324 326 327 329 329 328
263 271 285 291 292 294 315 308 291 300 304 288 295 303 317 334 341 342 341 342 344 346 350 355 358 358 359 0 3 2 359 357 352 346 338 333 331 331 330 331 330 329 328 327
267 276 287 289 299 317 323 317 306 315 327 304 310 322 340 344 338 344 345 346 348 351 357 2 3 2 2 4 3 357 355 352 346 341 338 337 337 336 334 331 329 328 327 325
271 277 286 294 302 314 318 315 325 322 325 325 327 340 335 341 343 344 347 348 350 353 355 1 0 356 357 359 358 356 353 351 348 343 340 339 336 334 333 331 328 326 324 323
272 264 281 289 304 308 303 303 313 324 330 331 329 329 334 341 339 343 345 349 352 354 355 358 356 356 355 357 353 352 350 348 343 340 338 336 335 333 330 328 326 325 323 321
263 268 266 284 276 293 289 294 307 310 316 324 329 332 336 339 342 347 349 352 355 356 357 356 355 354 353 355 354 352 349 346 341 338 337 335 334 332 330 327 325 324 322 320